Wind_Speed
14 14 14 14 13 12 12 12 13 13 13 13 13 13 13 13 13 13 13 13 13 13 13 14 14 14 15 15 15 16 16 16 16 17 17 18 19 19 19 19 19 20 20
15 15 15 15 15 14 14 14 14 14 14 14 15 15 16 15 15 15 16 15 15 15 15 15 15 16 16 16 16 17 17 17 17 17 17 18 19 19 19 20 20 21 20
17 17 17 17 17 16 16 15 15 16 16 16 16 17 17 17 17 16 16 16 17 16 17 17 17 18 17 18 18 18 19 19 19 18 18 19 19 19 20 21 21 21 21
19 19 19 19 19 19 18 18 18 18 18 18 18 19 19 18 19 18 18 18 18 18 18 19 19 19 19 19 19 20 20 20 20 21 21 21 22 22 22 22 23 23 23
22 21 20 21 21 21 20 20 20 20 21 21 21 21 21 21 21 20 20 20 20 20 21 21 21 21 21 21 21 21 22 22 22 23 23 23 24 24 24 24 25 25 25
25 23 22 22 22 22 22 22 22 22 23 23 24 24 24 24 23 23 23 23 22 22 23 23 23 22 22 22 22 23 23 24 24 24 25 25 25 26 26 26 27 27 27
28 27 25 24 23 23 23 24 24 24 24 25 25 26 26 26 26 26 26 26 25 25 24 25 25 25 25 25 24 24 24 25 26 27 27 27 28 28 28 28 28 28 28
30 29 28 27 26 26 26 26 26 26 26 27 28 28 27 28 28 29 29 29 28 27 26 26 27 27 27 27 26 26 26 27 27 27 28 29 29 29 29 28 28 29 29
32 31 30 30 29 28 29 29 28 29 29 29 30 30 30 31 31 31 31 31 29 29 28 28 28 28 28 28 28 28 28 28 29 29 29 29 30 30 30 30 30 30 30
34 33 32 32 32 31 31 32 31 31 32 32 32 32 33 33 33 33 32 31 30 29 29 29 29 29 29 30 30 30 29 29 30 30 30 31 31 31 31 31 31 31 32
36 36 34 34 34 33 33 33 34 34 34 35 35 34 35 35 33 33 32 32 31 31 31 30 29 29 29 30 30 31 31 32 32 32 32 33 33 33 33 33 33 34 33
38 38 37 36 36 36 36 35 35 36 36 36 36 36 36 36 35 34 34 33 33 32 31 30 30 30 30 31 31 32 33 34 34 35 35 34 34 34 35 35 36 37 37
39 39 39 39 38 38 38 38 37 37 37 37 37 37 37 36 35 35 35 34 34 33 32 32 32 32 32 33 33 33 34 35 35 35 36 36 36 36 37 38 38 39 38
39 39 39 40 40 40 40 39 38 37 38 38 38 38 37 36 36 36 35 34 34 34 34 34 35 34 34 35 35 35 35 36 36 37 37 37 37 37 37 38 39 39 38
39 39 39 40 40 39 40 39 39 38 37 38 38 38 38 37 37 37 37 36 36 36 36 36 35 36 36 36 37 36 37 37 37 37 38 38 38 38 38 39 39 40 40
41 40 40 40 40 40 40 40 39 38 38 38 38 39 39 38 38 38 37 37 37 37 38 38 37 37 37 38 37 38 38 38 38 39 38 38 38 39 39 40 40 41 41
41 41 41 40 39 40 39 39 40 40 40 40 39 39 39 39 39 39 39 39 39 38 38 38 38 38 39 39 38 39 39 39 39 40 40 40 40 40 40 40 40 41 41
41 41 40 39 39 39 40 41 41 41 41 40 40 39 39 40 40 40 39 40 40 39 38 38 38 39 39 39 39 40 40 39 39 40 41 41 41 41 41 41 42 43 43
40 40 39 39 39 40 40 41 41 41 41 41 40 39 40 40 40 40 39 39 39 39 39 40 40 40 40 40 40 40 40 39 40 40 41 40 40 41 41 42 42 43 43
39 39 39 39 40 40 40 41 41 41 40 40 40 39 40 40 40 40 40 40 40 39 39 39 40 40 40 41 40 40 40 40 40 40 40 40 40 40 41 41 41 41 42
39 39 39 39 39 39 39 39 39 39 38 39 40 40 40 40 39 40 41 40 39 38 38 39 39 39 39 39 39 39 39 40 39 39 38 39 39 40 40 41 41 41 40
37 37 37 36 36 36 37 37 37 38 38 39 39 38 37 38 38 38 39 38 38 37 37 38 38 38 37 37 37 37 38 38 37 37 37 38 38 39 39 40 40 40 40
35 35 34 34 34 35 35 35 36 37 37 37 36 34 34 35 36 36 36 36 36 37 37 37 36 36 35 36 36 36 36 36 36 36 37 37 37 38 38 38 38 38 38
32 32 32 32 32 33 33 33 34 34 34 34 33 32 32 33 33 34 34 34 34 35 35 35 34 34 34 34 34 34 34 35 35 36 36 37 37 37 37 37 37 37 37
29 29 29 30 30 31 31 30 30 30 30 30 30 30 30 31 31 31 31 32 32 33 33 32 32 33 33 33 33 34 34 34 35 35 35 35 36 36 36 36 35 35 35
26 26 27 27 27 27 27 27 27 27 28 28 29 29 30 30 30 30 30 30 31 31 31 30 30 31 31 31 32 33 33 33 34 34 34 35 35 35 35 35 35 34 34
Wind_Direction
314 315 316 320 324 320 314 314 316 320 321 322 320 322 321 317 315 311 305 305 305 304 297 294 294 295 295 293 292 293 296 297 295 293 293 291 290 290 289 289 288 289 288
304 308 309 310 313 314 312 312 312 313 314 316 320 320 318 315 309 307 304 303 303 300 299 299 296 296 295 294 293 293 294 296 296 297 297 295 293 291 291 292 291 290 289
295 299 302 303 303 303 303 305 307 309 310 314 318 320 319 317 313 309 307 306 305 302 296 296 295 292 294 293 292 291 291 292 294 294 295 296 296 294 294 294 292 292 291
293 294 296 297 298 298 296 297 299 301 304 306 309 312 313 312 310 307 306 305 304 303 299 295 294 293 294 291 288 288 289 290 292 293 293 294 295 296 296 296 296 295 293
288 290 291 294 295 296 297 296 294 295 298 300 302 305 307 307 306 304 301 300 300 298 297 297 295 294 293 293 290 288 287 289 291 291 292 291 292 294 295 296 296 296 295
281 283 283 287 289 291 292 293 293 293 295 297 298 300 301 302 301 300 298 296 296 295 294 293 292 293 293 293 290 288 286 287 288 290 290 290 291 292 293 294 294 295 295
277 278 278 281 284 287 288 290 290 290 292 293 294 296 297 298 298 298 296 294 294 293 294 291 289 289 290 292 291 288 288 288 288 289 289 289 291 291 292 293 293 293 294
273 275 276 277 280 281 282 284 286 286 287 289 291 293 294 295 295 296 295 292 293 292 292 293 290 289 288 289 290 289 289 290 290 289 289 289 289 291 291 291 291 293 293
270 271 272 274 275 278 280 280 283 283 284 286 288 290 293 295 294 293 294 293 291 289 289 291 291 287 285 286 287 288 289 289 289 289 289 290 290 291 291 291 291 292 292
271 271 272 273 274 275 277 278 280 282 281 282 286 288 292 294 293 293 292 293 291 289 288 288 289 288 286 286 285 285 288 289 289 287 288 290 290 291 292 292 292 292 292
273 272 271 272 274 275 275 276 278 280 281 282 283 287 290 292 292 291 290 291 291 289 288 286 286 288 287 287 286 286 287 287 287 288 287 288 288 289 289 290 291 292 292
272 273 274 275 274 275 275 275 275 277 280 282 285 286 288 288 289 289 289 289 288 288 286 286 285 286 286 286 286 286 286 287 287 287 287 286 286 287 288 288 290 292 292
272 272 274 275 274 273 273 273 274 276 278 281 284 285 287 288 289 290 289 288 287 286 286 286 285 286 287 287 288 288 287 286 286 287 287 286 286 287 288 289 290 291 291
272 272 272 273 274 274 275 277 277 278 279 281 282 284 286 287 288 289 289 289 286 285 285 286 286 286 287 287 288 288 288 286 285 286 287 287 288 288 288 289 289 289 291
271 271 272 273 274 275 275 277 277 278 280 281 282 283 285 286 286 285 286 286 286 285 285 285 286 285 286 287 286 286 287 287 286 286 286 287 288 288 288 288 288 288 290
271 271 271 272 272 274 276 276 276 277 278 279 281 282 283 284 283 283 284 285 284 284 284 284 285 286 287 288 287 287 288 288 286 286 286 286 286 287 288 289 289 289 290
271 271 270 269 271 273 274 276 277 277 277 279 280 281 282 282 281 282 283 284 282 282 282 284 286 287 288 288 288 289 289 289 288 287 287 288 287 287 288 288 287 288 288
272 272 271 271 272 273 275 276 277 277 277 279 280 279 280 281 281 282 282 284 283 282 282 283 285 286 287 288 288 289 288 287 287 287 287 288 287 286 288 288 288 288 288
272 272 271 272 273 274 275 276 276 276 277 278 278 278 280 281 282 282 284 284 284 283 282 282 283 285 286 287 288 288 288 288 287 288 287 286 286 287 287 287 287 287 288
272 272 273 273 273 274 276 277 277 278 277 278 278 278 280 281 281 281 282 283 284 283 283 284 284 286 286 287 287 288 287 287 288 288 288 288 288 288 288 288 287 287 288
273 273 272 273 274 274 274 275 276 276 277 278 277 278 279 279 279 280 280 281 283 284 285 285 286 287 287 288 288 288 288 289 289 289 289 290 290 290 289 289 289 289 289
273 273 273 273 274 274 274 274 274 274 275 276 276 276 277 278 279 279 281 282 283 285 286 286 286 287 287 288 288 289 289 288 288 289 290 291 292 292 292 291 291 290 289
272 273 273 273 272 273 274 274 275 276 277 276 276 277 278 279 279 281 283 284 284 285 286 286 286 287 287 288 288 289 290 289 288 289 291 292 293 293 294 294 293 292 292
272 273 274 274 275 275 276 276 277 277 277 278 277 278 279 280 281 282 283 284 285 285 286 286 286 287 287 287 288 288 289 289 290 291 292 292 292 292 293 293 293 293 293
274 274 274 275 275 275 276 278 279 279 280 280 280 279 279 281 283 283 284 284 285 286 287 287 287 287 287 288 289 290 290 290 291 292 292 293 293 293 292 292 293 293 293
277 276 275 275 275 276 277 279 282 282 282 281 281 281 281 282 284 285 285 285 286 287 289 289 289 290 290 291 292 292 291 291 292 292 293 293 294 293 293 293 293 293 294
Height
5891 5890 5889 5888 5887 5886 5885 5885 5884 5882 5881 5879 5878 5877 5875 5874 5873 5872 5870 5869 5868 5867 5866 5866 5865 5864 5863 5862 5862 5861 5860 5859 5858 5857 5856 5854 5853 5852 5851 5850 5849 5848 5847
5889 5888 5887 5886 5885 5884 5883 5882 5881 5880 5878 5877 5875 5874 5872 5871 5870 5869 5868 5866 5865 5864 5863 5862 5861 5860 5859 5858 5857 5857 5856 5855 5854 5853 5851 5850 5848 5847 5846 5845 5844 5843 5842
5886 5885 5884 5883 5882 5881 5880 5879 5878 5877 5875 5874 5873 5871 5870 5868 5867 5866 5864 5863 5862 5860 5860 5859 5858 5856 5855 5854 5853 5852 5851 5850 5849 5848 5847 5845 5844 5842 5841 5840 5838 5837 5836
5881 5881 5880 5879 5878 5877 5876 5875 5875 5873 5872 5871 5869 5868 5867 5865 5864 5862 5861 5859 5858 5857 5855 5854 5853 5852 5850 5849 5848 5847 5846 5845 5844 5843 5842 5841 5839 5837 5836 5834 5833 5831 5830
5876 5876 5875 5875 5874 5873 5872 5871 5870 5869 5868 5867 5865 5864 5862 5861 5860 5858 5856 5855 5854 5852 5851 5849 5848 5847 5845 5844 5843 5842 5841 5840 5839 5837 5836 5835 5833 5832 5830 5828 5827 5825 5823
5871 5871 5870 5870 5869 5868 5867 5866 5865 5864 5863 5862 5861 5859 5858 5856 5855 5853 5851 5850 5848 5847 5845 5844 5842 5841 5839 5838 5837 5836 5835 5834 5832 5831 5830 5828 5827 5825 5824 5822 5820 5819 5817
5864 5864 5864 5863 5863 5862 5861 5860 5859 5858 5857 5856 5855 5854 5852 5851 5849 5847 5845 5844 5842 5841 5839 5837 5835 5834 5833 5832 5830 5829 5828 5827 5826 5824 5823 5822 5820 5818 5816 5815 5813 5811 5810
5857 5857 5857 5856 5856 5856 5855 5854 5854 5853 5851 5850 5849 5848 5846 5844 5842 5840 5838 5837 5836 5834 5832 5830 5828 5827 5826 5825 5823 5822 5821 5820 5818 5817 5816 5814 5813 5811 5809 5807 5805 5804 5802
5849 5849 5848 5848 5848 5848 5848 5847 5846 5845 5844 5843 5842 5840 5839 5837 5835 5833 5831 5829 5827 5826 5825 5823 5821 5820 5818 5817 5816 5815 5813 5812 5810 5809 5808 5806 5805 5803 5801 5799 5798 5796 5794
5840 5840 5839 5839 5839 5839 5839 5838 5838 5837 5836 5835 5834 5833 5831 5829 5827 5825 5823 5820 5819 5818 5817 5815 5814 5812 5810 5809 5807 5806 5805 5804 5802 5801 5799 5798 5797 5795 5793 5791 5789 5787 5785
5831 5830 5830 5828 5830 5829 5829 5829 5829 5828 5827 5826 5825 5825 5823 5821 5819 5817 5815 5812 5811 5810 5808 5807 5806 5804 5802 5801 5799 5798 5796 5795 5794 5792 5791 5789 5788 5786 5784 5782 5780 5778 5776
5821 5820 5820 5818 5820 5820 5820 5819 5819 5818 5818 5817 5816 5815 5814 5812 5810 5809 5807 5804 5803 5801 5800 5799 5798 5796 5794 5792 5791 5789 5788 5786 5784 5783 5782 5780 5778 5776 5775 5773 5770 5768 5766
5812 5811 5810 5809 5809 5809 5809 5809 5808 5808 5807 5807 5807 5806 5805 5803 5801 5799 5798 5796 5794 5793 5791 5790 5789 5788 5786 5784 5782 5781 5778 5776 5774 5773 5771 5770 5768 5766 5765 5763 5760 5758 5756
5800 5800 5800 5799 5799 5799 5798 5798 5798 5797 5797 5797 5796 5796 5794 5793 5792 5790 5788 5787 5785 5784 5782 5781 5780 5778 5777 5775 5773 5771 5768 5766 5764 5763 5761 5759 5758 5756 5754 5752 5750 5747 5745
5788 5789 5789 5788 5788 5788 5787 5787 5787 5786 5786 5786 5785 5784 5784 5783 5782 5780 5778 5777 5775 5774 5772 5771 5770 5768 5766 5764 5762 5760 5758 5755 5753 5752 5750 5748 5747 5744 5743 5741 5738 5735 5733
5777 5777 5777 5777 5777 5777 5776 5776 5774 5775 5775 5775 5774 5773 5772 5772 5770 5769 5767 5766 5765 5764 5762 5761 5759 5757 5756 5754 5751 5749 5747 5744 5742 5741 5739 5737 5735 5733 5731 5729 5727 5724 5721
5766 5765 5765 5765 5765 5765 5765 5765 5764 5764 5764 5763 5762 5762 5761 5760 5759 5758 5756 5755 5754 5752 5751 5750 5748 5747 5745 5743 5741 5738 5736 5734 5732 5729 5727 5726 5723 5721 5719 5717 5715 5712 5710
5753 5753 5752 5753 5753 5753 5753 5752 5752 5752 5752 5751 5751 5750 5749 5748 5747 5745 5744 5743 5742 5741 5739 5738 5737 5735 5734 5731 5729 5727 5725 5723 5720 5718 5716 5714 5711 5709 5707 5705 5702 5700 5698
5741 5741 5741 5741 5741 5741 5740 5740 5740 5740 5740 5739 5739 5738 5737 5736 5735 5734 5732 5731 5730 5728 5727 5726 5725 5723 5721 5719 5717 5715 5713 5711 5709 5706 5704 5701 5699 5697 5695 5692 5690 5687 5685
5729 5729 5729 5729 5730 5729 5729 5729 5728 5728 5728 5727 5726 5726 5725 5724 5723 5722 5721 5720 5718 5717 5715 5714 5713 5711 5709 5707 5705 5703 5701 5699 5697 5694 5692 5690 5687 5685 5682 5680 5677 5674 5672
5717 5717 5717 5718 5718 5718 5717 5717 5717 5716 5715 5714 5714 5713 5712 5711 5711 5710 5709 5708 5706 5705 5703 5702 5700 5699 5697 5695 5693 5691 5689 5687 5685 5682 5680 5678 5675 5673 5670 5667 5665 5662 5660
5705 5705 5706 5706 5706 5706 5706 5705 5705 5704 5703 5703 5702 5702 5700 5699 5698 5697 5696 5695 5694 5693 5691 5690 5688 5687 5685 5683 5681 5679 5677 5675 5673 5671 5669 5666 5663 5661 5658 5655 5653 5651 5648
5694 5694 5695 5695 5695 5695 5694 5694 5694 5693 5692 5691 5690 5689 5689 5688 5687 5686 5685 5683 5682 5681 5679 5678 5677 5675 5673 5672 5670 5668 5666 5664 5662 5659 5657 5655 5652 5649 5646 5643 5641 5638 5636
5684 5684 5684 5684 5684 5684 5684 5683 5682 5681 5681 5680 5679 5678 5678 5677 5676 5675 5674 5672 5671 5670 5668 5667 5665 5664 5662 5660 5658 5657 5654 5652 5650 5648 5646 5643 5641 5638 5635 5632 5630 5627 5625
5675 5675 5675 5675 5675 5674 5674 5674 5673 5671 5670 5669 5668 5668 5667 5666 5665 5664 5663 5662 5661 5659 5658 5656 5655 5653 5651 5650 5648 5646 5643 5641 5639 5637 5634 5632 5630 5627 5624 5621 5619 5616 5613
5667 5667 5666 5666 5666 5666 5665 5664 5663 5662 5661 5660 5659 5658 5657 5657 5656 5654 5653 5652 5650 5649 5648 5646 5644 5643 5641 5639 5637 5635 5633 5631 5628 5626 5624 5621 5619 5616 5613 5611 5608 5605 5602